Enid Vance AFB, OK

3:19 AM CDT on May 23, 2018 (GMT -0500)
Vance Air Force Base

Weather History for KEND - February, 2014

Change the Weather History Date:

Monday, February 3, 2014

  Actual Average Record
Temperature  
Mean Temperature 24 °F -  
Max Temperature 35 °F 46 °F 64 °F (1999)
Min Temperature 14 °F 27 °F -5 °F (2011)
Degree Days  
Heating Degree Days 40    
Moisture  
Dew Point 22 °F    
Average Humidity 82    
Maximum Humidity 100    
Minimum Humidity 47    
Precipitation  
Precipitation 0.00 in - - ()
Sea Level Pressure  
Sea Level Pressure 30.20 in    
Wind  
Wind Speed 8 mph (SE)    
Max Wind Speed 13 mph    
Max Gust Speed -    
Visibility 10 miles    
Events      
Averages and records for this station are not official NWS values.
T = Trace of Precipitation, MM = Missing Value Source: NWS Daily Summary

Daily Weather History Graph

Daily Weather History Graph

Search for Another Location

Airport or City:

Astronomy

Feb. 03, 2014 Rise Set
Actual Time 7:31 AM CST 6:00 PM CST
Civil Twilight 7:04 AM CST 6:27 PM CST
Nautical Twilight 6:33 AM CST 6:57 PM CST
Astronomical Twilight 6:03 AM CST 7:28 PM CST
Moon 9:43 AM CST (2/3) 10:42 PM CST (2/3)
Length of Visible Light 11h 22m
Length of Day
10h 29m
Waxing Crescent, 20% of the Moon is Illuminated
Feb 3
Waxing Crescent
Feb 6
First Quarter
Feb 14
Full
Feb 22
Last Quarter
Mar 1
New

Hourly Weather History & Observations

Time (CST) Temp. Windchill Dew Point Humidity Pressure Visibility Wind Dir Wind Speed Gust Speed Precip Events Conditions
12:58 AM 17.2 °F 8.9 °F 9.1 °F 71% 30.35 in 10.0 mi East 5.8 mph - N/A   Clear
1:58 AM 17.2 °F 6.8 °F 10.8 °F 76% 30.31 in 10.0 mi East 8.1 mph - N/A   Clear
2:58 AM 16.5 °F 8.1 °F 10.8 °F 78% 30.32 in 10.0 mi ESE 5.8 mph - N/A   Clear
3:55 AM 15.8 °F 6.1 °F 12.2 °F 86% 30.32 in 10.0 mi SE 6.9 mph - N/A   Clear
4:55 AM 14.0 °F 3.9 °F 12.2 °F 93% 30.29 in 10.0 mi East 6.9 mph - N/A   Clear
5:55 AM 14.0 °F 3.9 °F 14.0 °F 100% 30.28 in 10.0 mi ESE 6.9 mph - N/A   Clear
6:55 AM 15.8 °F 6.1 °F 15.8 °F 100% 30.28 in 10.0 mi ESE 6.9 mph - N/A   Scattered Clouds
7:55 AM 15.8 °F 8.6 °F 14.0 °F 93% 30.28 in 10.0 mi East 4.6 mph - N/A   Mostly Cloudy
8:55 AM 19.4 °F 12.8 °F 17.6 °F 93% 30.31 in 10.0 mi SE 4.6 mph - N/A   Mostly Cloudy
9:55 AM 23.0 °F 15.8 °F 15.8 °F 74% 30.32 in 10.0 mi SE 5.8 mph - N/A   Mostly Cloudy
10:55 AM 28.4 °F 18.0 °F 14.0 °F 55% 30.29 in 10.0 mi SE 12.7 mph - N/A   Overcast
11:55 AM 30.2 °F 20.8 °F 12.2 °F 47% 30.27 in 10.0 mi SSE 11.5 mph - N/A   Overcast
12:55 PM 32.0 °F 24.2 °F 17.6 °F 55% 30.23 in 10.0 mi SE 9.2 mph - N/A   Overcast
1:55 PM 33.8 °F 26.4 °F 19.4 °F 56% 30.18 in 10.0 mi SE 9.2 mph - N/A   Overcast
2:55 PM 35.6 °F 28.0 °F 24.8 °F 65% 30.16 in 10.0 mi SSE 10.4 mph - N/A   Overcast
3:55 PM 35.6 °F 27.5 °F 24.8 °F 65% 30.15 in 10.0 mi SSE 11.5 mph - N/A   Overcast
4:23 PM 35.6 °F 28.0 °F 26.6 °F 70% 30.09 in 10.0 mi SE 10.4 mph - N/A   Overcast
4:55 PM 33.8 °F 25.3 °F 28.4 °F 81% 30.14 in 10.0 mi SE 11.5 mph - N/A   Overcast
5:55 PM 33.8 °F 25.3 °F 30.2 °F 87% 30.12 in 10.0 mi SE 11.5 mph - N/A   Overcast
6:32 PM 33.8 °F 25.8 °F 30.2 °F 87% 30.06 in 10.0 mi SE 10.4 mph - N/A   Overcast
6:55 PM 33.8 °F 25.8 °F 32.0 °F 93% 30.12 in 10.0 mi SE 10.4 mph - N/A   Overcast
7:58 PM 33.8 °F 27.7 °F 33.3 °F 98% 30.12 in 10.0 mi ESE 6.9 mph - N/A   Overcast
8:58 PM 33.1 °F 25.5 °F 32.4 °F 97% 30.12 in 10.0 mi ESE 9.2 mph - N/A   Overcast
9:58 PM 32.9 °F 26.7 °F 31.8 °F 96% 30.11 in 10.0 mi ESE 6.9 mph - N/A   Overcast
10:43 PM 32.0 °F 25.6 °F 32.0 °F 100% 30.06 in 10.0 mi ESE 6.9 mph - N/A   Overcast
10:55 PM 32.0 °F 26.4 °F 32.0 °F 100% 30.11 in 10.0 mi ESE 5.8 mph - N/A   Overcast
11:55 PM 33.8 °F 29.6 °F 32.0 °F 93% 30.09 in 10.0 mi East 4.6 mph - N/A   Overcast